Vertical_Velocity
1 0 -3 -2 -3 -1 -1 -3 -2 -2 -3 -3 -2 -1 -1 -1 -1 1 1 0 0 1 1 -1 2 1 1 2 -9 -2 1 2 3 -2 -1 -1 3 1 0 -0 8 11 -6 1 2 -1 -2
-1 -1 0 0 -2 -1 -2 -0 1 1 1 0 -1 -2 -1 -2 -1 -3 -3 1 0 1 0 2 1 6 2 6 -1 -2 5 4 3 6 -0 2 -2 -5 3 -0 7 -0 1 -4 -1 -3 1
1 1 -0 -0 -3 -1 -0 1 1 1 -0 0 -1 -5 -2 -0 1 -0 -1 -0 -0 -0 1 1 0 2 5 -1 3 5 0 -2 -1 3 5 0 5 5 -0 1 -2 -2 7 0 -2 -7 -5
1 0 0 -2 -1 -0 -1 -2 -2 -2 -2 -1 -2 -1 -4 -1 -2 0 0 0 1 0 -3 -0 1 2 1 -3 -4 2 5 6 5 -0 -4 0 -1 0 16 4 1 5 12 6 -5 2 -2
-3 -1 -3 -1 -1 -3 -5 -5 -4 -1 -1 -1 -1 -1 -4 -2 -1 -1 -0 -2 -0 -1 1 -2 -1 1 8 -2 -0 -2 -3 6 2 3 5 0 -1 -3 7 7 6 4 -1 2 1 -1 1
2 2 -0 -0 -2 -3 -3 -4 -3 -2 -0 -0 -0 -1 -2 -4 -4 -0 0 0 -0 -2 -3 -2 -1 10 4 7 -1 -1 -0 -2 1 3 1 4 4 3 6 10 -7 -4 4 0 -1 1 3
-0 -1 -1 -2 0 0 -0 1 -0 -3 -3 -1 1 0 -0 -3 -5 -4 -8 -2 2 10 1 -1 3 -0 0 1 4 1 2 -0 0 6 3 -2 9 -3 -9 -4 -4 4 6 1 -6 -4 5
0 -2 -1 1 1 1 1 0 2 0 -2 -5 -4 -1 -2 -0 -2 -1 2 -9 -3 -0 -11 -2 -1 -2 -0 -1 4 3 3 2 6 -1 4 11 -2 -11 1 2 4 2 2 -6 -6 -1 6
-2 0 1 0 -1 -3 -4 -2 -4 -4 -1 -2 -2 -7 -4 -3 2 -2 -0 -3 -2 1 7 -0 0 2 3 -0 2 5 -2 -1 1 5 -0 -0 -1 -0 2 1 5 -1 1 -1 2 -1 -1
-2 -4 -3 -4 -3 -1 -2 -1 1 1 0 -1 -1 -2 -3 -3 -4 -3 4 -0 3 1 6 9 4 3 0 -0 4 -2 -2 5 2 -0 0 -2 -5 0 1 0 4 4 1 0 1 3 1
1 2 1 1 -0 -3 -3 -4 2 0 -1 -2 0 1 1 -5 -3 0 -1 0 1 0 4 8 5 -5 -1 3 0 3 -3 2 -0 -1 5 -3 1 1 3 -2 1 4 -0 1 1 1 8
-4 -5 -3 -2 -2 -3 -2 -2 -5 -6 -5 -5 -1 1 -3 -3 -4 -1 -2 1 -0 16 -2 4 1 1 1 1 1 1 1 -2 -1 2 2 -3 -0 1 3 1 0 1 0 1 0 2 5
-2 -2 -1 0 -2 -2 -4 -3 -3 -3 1 4 2 0 -2 0 -0 1 1 -1 11 5 4 3 2 0 1 -2 -1 2 1 3 3 6 3 2 0 1 -0 2 1 2 3 2 8 7 -2
0 0 -2 -2 -0 1 -1 -4 -3 -1 -9 -3 -0 2 3 2 2 0 -2 9 8 1 2 1 1 -2 2 2 -0 -1 1 1 2 1 1 2 3 0 3 2 3 -3 4 4 1 3 2
2 4 2 -0 -3 -2 -1 -0 -1 -0 -3 -9 -2 -1 1 2 -2 -4 6 5 6 4 5 2 -11 4 0 1 4 1 1 2 1 1 3 2 3 3 -1 0 5 4 5 3 2 -1 7
-2 -3 -2 -3 -3 0 -2 -2 -2 -5 -6 -8 -12 -7 -2 -2 -1 0 8 -0 1 2 1 -0 4 3 2 0 1 2 0 3 1 1 1 1 2 1 3 3 3 6 4 6 2 1 -0
-3 -2 -1 -2 -2 -2 -1 -0 -2 -0 -7 -5 -7 -4 -5 -5 -1 7 5 2 -0 -0 4 6 1 0 2 5 3 -1 -4 3 0 -0 1 1 5 8 6 2 2 4 2 2 4 5 3
2 -2 -2 -2 -1 -2 -2 -2 -2 1 1 -4 -3 -2 -11 -4 8 0 0 7 1 -2 -1 -1 4 3 3 -0 0 1 1 2 1 1 1 1 1 0 -3 3 0 1 0 2 6 -5 0
-0 -0 -0 1 -2 -3 -2 1 1 0 11 5 -1 -5 -6 -11 3 -1 -6 -2 6 -2 -0 -1 -0 1 -0 1 2 2 -0 2 -0 -0 2 0 0 -0 0 9 2 0 1 -0 1 2 -3
-5 0 1 -1 -1 -2 -0 0 -2 -1 13 5 1 0 2 -7 -5 2 0 -2 -3 -3 -1 -0 -0 4 1 -0 -2 -0 -2 -2 -1 1 0 2 1 3 0 -0 6 3 -1 -1 3 4 -5
0 -0 -0 2 -4 -2 1 -1 1 -2 12 11 1 -3 4 -4 -11 0 3 2 -0 -1 -0 1 -4 2 2 0 -1 -2 -1 -8 -8 -0 -1 4 2 6 -3 -1 2 2 1 -2 5 -6 12
-2 -3 -2 -2 -2 1 1 7 -10 1 6 7 1 -2 3 -4 1 5 -2 -4 1 -6 4 -8 8 -3 1 1 3 -1 6 2 0 -1 1 -0 -4 2 -3 -1 2 1 -1 0 -0 -3 1
-4 -3 1 -3 -6 -1 -3 0 -3 3 8 9 3 -4 11 -4 0 6 -9 -9 -5 3 -7 0 3 5 3 -8 5 -2 1 -0 -2 5 -0 2 2 2 -6 0 0 4 -8 -2 -2 0 2
5 7 8 -0 -6 -1 -3 2 4 1 6 19 1 5 6 -6 5 -5 1 4 -0 -3 4 -6 5 11 -6 -6 -5 -0 4 2 5 -6 4 1 3 2 -2 2 5 6 0 1 2 -1 -0
3 5 -3 -2 3 5 3 3 7 -3 5 9 19 12 2 -2 2 -1 3 0 1 -3 2 5 -8 -0 -4 -2 3 0 -4 6 1 -1 1 1 1 1 2 1 -6 -7 2 1 4 -7 1
1 0 1 -5 -3 -2 3 3 2 2 1 9 -1 12 13 6 -4 7 1 -2 -1 -1 -3 -3 -5 4 -4 2 3 1 -1 2 0 5 0 2 2 6 2 3 1 8 3 -0 1 4 1
-1 -3 -1 -0 1 2 2 2 3 0 -1 14 1 5 15 5 -14 0 -0 -2 -3 0 1 1 -0 1 -1 0 2 1 -1 1 2 1 1 2 2 -1 -1 0 -4 3 1 -1 8 10 1
-2 -3 -0 1 -0 2 4 -1 -2 0 3 17 -2 2 14 3 -6 -1 -1 -2 2 -1 3 2 4 4 3 4 2 -1 1 1 2 1 0 -0 1 -1 2 2 -2 1 1 6 4 1 -0
6 2 -2 -0 -3 -5 -3 -1 1 4 2 11 2 -1 1 23 4 -5 -4 2 7 5 14 2 1 -1 -1 3 1 1 1 2 0 -0 1 0 -3 4 2 2 3 1 1 0 -0 -1 2
Height
1565 1561 1558 1554 1550 1546 1541 1536 1530 1524 1519 1514 1509 1502 1495 1490 1485 1480 1474 1468 1464 1461 1458 1456 1455 1455 1456 1458 1452 1446 1445 1446 1446 1449 1454 1456 1459 1461 1456 1452 1453 1450 1448 1447 1446 1449 1448
1566 1563 1560 1555 1551 1545 1540 1534 1528 1522 1516 1510 1504 1498 1492 1486 1480 1475 1469 1464 1458 1454 1452 1451 1450 1451 1452 1453 1445 1444 1445 1444 1446 1447 1450 1454 1454 1455 1452 1448 1448 1444 1445 1446 1444 1443 1444
1567 1563 1559 1554 1549 1544 1539 1534 1528 1521 1514 1508 1501 1495 1489 1481 1475 1468 1463 1457 1453 1449 1446 1444 1443 1446 1449 1447 1442 1442 1441 1443 1445 1447 1449 1451 1453 1454 1451 1449 1446 1447 1447 1443 1439 1438 1440
1567 1563 1558 1554 1549 1544 1539 1533 1527 1521 1514 1507 1500 1492 1485 1478 1470 1463 1458 1452 1448 1444 1442 1440 1439 1442 1442 1439 1440 1442 1443 1442 1442 1443 1446 1448 1450 1451 1449 1447 1447 1447 1442 1439 1423 1428 1434
1566 1562 1558 1554 1549 1543 1537 1532 1526 1519 1512 1505 1498 1491 1483 1475 1466 1459 1454 1449 1445 1443 1441 1439 1442 1443 1438 1437 1438 1439 1442 1445 1443 1444 1444 1444 1447 1447 1448 1448 1442 1436 1431 1424 1421 1424 1430
1567 1563 1558 1553 1548 1542 1536 1530 1524 1517 1510 1503 1496 1488 1480 1471 1463 1456 1452 1447 1443 1441 1441 1441 1442 1446 1439 1437 1435 1436 1437 1441 1445 1444 1446 1447 1444 1440 1437 1435 1432 1425 1419 1415 1422 1424 1432
1567 1563 1559 1554 1548 1542 1536 1529 1522 1515 1508 1501 1493 1486 1478 1469 1461 1456 1451 1448 1450 1447 1443 1441 1440 1438 1438 1437 1436 1435 1435 1438 1441 1443 1440 1441 1440 1432 1425 1422 1421 1420 1418 1417 1415 1416 1425
1567 1564 1559 1553 1547 1541 1535 1528 1521 1513 1506 1499 1492 1484 1476 1469 1461 1457 1454 1453 1458 1458 1447 1439 1437 1436 1435 1434 1435 1435 1435 1437 1437 1432 1434 1437 1433 1422 1421 1419 1419 1420 1422 1418 1414 1415 1422
1567 1563 1557 1552 1546 1539 1533 1526 1519 1512 1505 1498 1491 1482 1474 1468 1463 1460 1457 1456 1456 1455 1451 1436 1437 1438 1438 1436 1433 1434 1435 1434 1432 1430 1428 1426 1419 1421 1420 1423 1425 1422 1419 1415 1415 1416 1420
1566 1561 1556 1551 1544 1538 1532 1525 1517 1510 1504 1497 1489 1481 1473 1466 1465 1462 1462 1459 1456 1454 1441 1430 1435 1437 1438 1436 1433 1434 1434 1437 1431 1426 1425 1422 1418 1424 1423 1422 1419 1417 1423 1423 1427 1428 1420
1565 1560 1554 1548 1543 1536 1529 1522 1516 1509 1502 1496 1488 1480 1472 1465 1465 1465 1463 1458 1456 1457 1437 1432 1433 1435 1435 1435 1434 1432 1432 1436 1427 1424 1430 1419 1422 1425 1424 1422 1426 1422 1428 1427 1428 1428 1424
1563 1558 1552 1546 1539 1533 1526 1520 1514 1507 1500 1493 1487 1479 1471 1468 1466 1465 1461 1458 1458 1447 1432 1430 1431 1432 1432 1429 1430 1431 1431 1434 1431 1428 1424 1423 1428 1428 1430 1433 1432 1433 1431 1430 1432 1432 1433
1561 1555 1549 1543 1537 1531 1524 1518 1512 1505 1498 1492 1485 1478 1472 1470 1468 1463 1459 1458 1449 1437 1427 1431 1431 1430 1431 1427 1427 1428 1426 1427 1425 1425 1418 1420 1423 1429 1431 1429 1432 1434 1429 1419 1427 1434 1406
1559 1553 1547 1541 1535 1529 1524 1519 1512 1505 1498 1491 1484 1477 1472 1470 1467 1462 1458 1455 1444 1427 1432 1437 1435 1432 1429 1429 1426 1426 1424 1423 1430 1430 1423 1415 1413 1426 1431 1430 1425 1426 1424 1411 1406 1392 1394
1556 1550 1545 1540 1534 1529 1524 1519 1513 1506 1498 1491 1483 1477 1472 1470 1466 1463 1463 1446 1436 1446 1451 1446 1433 1424 1418 1429 1433 1428 1422 1423 1429 1432 1426 1416 1416 1430 1432 1434 1435 1426 1425 1429 1422 1409 1415
1553 1548 1543 1538 1533 1528 1523 1518 1513 1507 1499 1492 1483 1476 1471 1469 1465 1462 1458 1444 1448 1455 1454 1449 1443 1430 1424 1424 1432 1427 1422 1429 1433 1436 1434 1430 1423 1427 1434 1435 1435 1431 1432 1427 1424 1425 1410
1549 1544 1538 1533 1528 1524 1519 1515 1510 1505 1500 1493 1486 1478 1471 1469 1464 1461 1451 1455 1456 1456 1457 1453 1445 1441 1436 1433 1437 1434 1430 1435 1439 1438 1436 1434 1432 1428 1430 1427 1421 1430 1426 1431 1434 1424 1412
1545 1540 1536 1531 1527 1523 1519 1514 1509 1503 1497 1493 1489 1484 1474 1469 1465 1462 1462 1466 1465 1458 1458 1457 1453 1447 1445 1445 1443 1437 1431 1439 1440 1441 1439 1440 1439 1427 1420 1433 1433 1433 1430 1431 1429 1418 1424
1540 1535 1531 1528 1523 1520 1516 1511 1507 1502 1497 1491 1488 1482 1474 1471 1461 1463 1467 1465 1462 1461 1460 1458 1456 1455 1454 1453 1451 1439 1438 1446 1445 1445 1443 1442 1434 1431 1419 1430 1436 1434 1437 1436 1437 1436 1429
1537 1532 1528 1525 1520 1516 1512 1508 1504 1500 1496 1491 1488 1479 1472 1471 1471 1470 1468 1463 1463 1462 1461 1462 1459 1455 1453 1451 1449 1447 1445 1448 1447 1448 1446 1445 1438 1434 1430 1416 1422 1428 1425 1427 1432 1433 1424
1533 1529 1524 1520 1516 1511 1507 1503 1499 1495 1493 1490 1485 1479 1476 1470 1466 1466 1466 1464 1461 1459 1459 1459 1456 1454 1458 1457 1453 1447 1444 1446 1445 1442 1444 1443 1438 1430 1427 1426 1425 1427 1426 1426 1429 1427 1429
1529 1524 1519 1514 1509 1505 1502 1498 1494 1491 1487 1485 1482 1480 1474 1467 1465 1465 1463 1456 1455 1454 1456 1454 1454 1454 1455 1456 1452 1451 1448 1449 1447 1444 1441 1440 1434 1429 1428 1424 1424 1424 1421 1420 1420 1420 1419
1523 1518 1514 1509 1504 1499 1494 1492 1490 1487 1484 1479 1475 1473 1471 1462 1460 1461 1455 1452 1449 1450 1450 1450 1451 1453 1450 1446 1445 1446 1444 1442 1442 1441 1441 1441 1434 1431 1425 1418 1424 1424 1410 1413 1414 1414 1413
1517 1513 1507 1502 1497 1493 1490 1485 1483 1481 1479 1476 1471 1470 1467 1455 1456 1449 1447 1449 1447 1447 1447 1444 1446 1447 1446 1445 1445 1440 1436 1434 1434 1433 1436 1437 1437 1432 1425 1422 1425 1410 1409 1412 1413 1411 1411
1512 1506 1501 1496 1493 1489 1483 1480 1477 1475 1473 1470 1467 1462 1459 1449 1449 1445 1444 1444 1446 1447 1445 1443 1441 1442 1442 1445 1440 1433 1422 1424 1423 1429 1432 1435 1437 1430 1426 1415 1406 1404 1411 1411 1412 1411 1411
1506 1501 1495 1490 1486 1484 1481 1475 1472 1469 1467 1464 1461 1458 1453 1448 1441 1442 1443 1441 1442 1443 1439 1438 1440 1440 1440 1440 1435 1432 1426 1423 1418 1426 1430 1432 1435 1432 1423 1424 1416 1406 1413 1415 1414 1410 1418
1495 1491 1488 1484 1479 1476 1474 1470 1467 1464 1462 1459 1454 1453 1450 1445 1439 1439 1439 1437 1440 1441 1438 1436 1439 1438 1439 1435 1430 1426 1424 1424 1423 1419 1422 1427 1430 1427 1421 1421 1409 1412 1414 1416 1415 1424 1423
1487 1484 1479 1476 1472 1469 1466 1463 1460 1458 1455 1453 1449 1448 1447 1442 1437 1435 1436 1437 1437 1438 1436 1436 1437 1435 1437 1434 1428 1425 1426 1425 1424 1421 1419 1420 1422 1419 1419 1422 1417 1414 1417 1417 1424 1424 1424
1480 1474 1472 1467 1464 1462 1458 1455 1453 1451 1449 1446 1444 1443 1442 1440 1433 1432 1433 1434 1434 1435 1435 1434 1433 1433 1433 1431 1430 1427 1425 1427 1423 1424 1423 1425 1419 1419 1419 1412 1418 1419 1420 1422 1422 1423 1424